Meteo pe oră la Dziadkowice

Astăzi, 7 Martie, Duminică

Timp Temperatura Precipitaţii Vânt Presiune Umiditate
00:00 -4°C° 0 mm 6 m/s 750 mmHg 65%
01:00 -4°C° 0 mm 7 m/s 750 mmHg 69%
02:00 -4°C° 0 mm 7 m/s 749 mmHg 72%
03:00 -4°C° 0 mm 8 m/s 748 mmHg 77%
04:00 -4°C° 0 mm 9 m/s 747 mmHg 81%
05:00 -4°C° 0 mm 9 m/s 747 mmHg 86%
06:00 -4°C° 0.2 mm 10 m/s 746 mmHg 85%
07:00 -4°C° 0.2 mm 10 m/s 746 mmHg 84%
08:00 -4°C° 0 mm 10 m/s 745 mmHg 82%
09:00 -3°C° 0 mm 10 m/s 745 mmHg 77%
10:00 -3°C° 0 mm 10 m/s 745 mmHg 72%
11:00 -2°C° 0 mm 10 m/s 745 mmHg 66%
12:00 -2°C° 0 mm 10 m/s 744 mmHg 67%
13:00 -2°C° 0 mm 10 m/s 744 mmHg 68%
14:00 -2°C° 0 mm 10 m/s 744 mmHg 67%
15:00 -2°C° 0 mm 10 m/s 743 mmHg 72%
16:00 -3°C° 0 mm 9 m/s 743 mmHg 78%
17:00 -3°C° 0 mm 9 m/s 743 mmHg 83%
18:00 -3°C° 0.2 mm 9 m/s 743 mmHg 86%
19:00 -4°C° 0.2 mm 8 m/s 743 mmHg 89%
20:00 -4°C° 0.2 mm 8 m/s 743 mmHg 92%
21:00 -3°C° 0.5 mm 7 m/s 743 mmHg 89%
22:00 -4°C° 0.5 mm 5 m/s 743 mmHg 87%
23:00 -3°C° 0.5 mm 4 m/s 743 mmHg 84%

Mâine, 8 Martie, Luni

Timp Temperatura Precipitaţii Vânt Presiune Umiditate
00:00 -4°C° 0 mm 4 m/s 744 mmHg 84%
01:00 -4°C° 0 mm 4 m/s 744 mmHg 85%
02:00 -5°C° 0 mm 4 m/s 744 mmHg 85%
03:00 -5°C° 0 mm 4 m/s 744 mmHg 84%
04:00 -5°C° 0 mm 4 m/s 744 mmHg 83%
05:00 -7°C° 0 mm 4 m/s 744 mmHg 83%
06:00 -6°C° 0 mm 5 m/s 744 mmHg 81%
07:00 -6°C° 0 mm 5 m/s 745 mmHg 79%
08:00 -6°C° 0 mm 6 m/s 745 mmHg 77%
09:00 -5°C° 0.1 mm 6 m/s 745 mmHg 72%
10:00 -4°C° 0.1 mm 7 m/s 746 mmHg 68%
11:00 -3°C° 0.1 mm 7 m/s 746 mmHg 64%
12:00 -3°C° 0 mm 7 m/s 747 mmHg 60%
13:00 -3°C° 0 mm 6 m/s 747 mmHg 57%
14:00 -2°C° 0 mm 6 m/s 747 mmHg 54%
15:00 -2°C° 0 mm 6 m/s 747 mmHg 57%
16:00 -3°C° 0 mm 6 m/s 747 mmHg 61%
17:00 -2°C° 0 mm 5 m/s 747 mmHg 64%
18:00 -4°C° 0 mm 5 m/s 748 mmHg 69%
19:00 -3°C° 0 mm 4 m/s 748 mmHg 73%
20:00 -4°C° 0 mm 4 m/s 749 mmHg 78%
21:00 -5°C° 0 mm 3 m/s 749 mmHg 79%
22:00 -5°C° 0 mm 3 m/s 749 mmHg 81%
23:00 -6°C° 0 mm 3 m/s 749 mmHg 82%

Poimâine, 9 Martie, Marţi

Timp Temperatura Precipitaţii Vânt Presiune Umiditate
00:00 -6°C° 0 mm 3 m/s 750 mmHg 83%
01:00 -5°C° 0 mm 2 m/s 750 mmHg 84%
02:00 -5°C° 0 mm 2 m/s 750 mmHg 85%
03:00 -5°C° 0 mm 2 m/s 750 mmHg 85%
04:00 -5°C° 0 mm 2 m/s 750 mmHg 85%
05:00 -3°C° 0 mm 1 m/s 750 mmHg 85%
06:00 -3°C° 0 mm 1 m/s 750 mmHg 82%
07:00 -3°C° 0 mm 1 m/s 751 mmHg 79%
08:00 -3°C° 0 mm 1 m/s 751 mmHg 76%
09:00 -2°C° 0 mm 1 m/s 751 mmHg 69%
10:00 -2°C° 0 mm 0 m/s 751 mmHg 62%
11:00 -2°C° 0 mm 0 m/s 751 mmHg 55%
12:00 -1°C° 0 mm 0 m/s 751 mmHg 52%
13:00 0°C° 0 mm 1 m/s 751 mmHg 48%
14:00 +1°C° 0 mm 1 m/s 751 mmHg 45%
15:00 +1°C° 0 mm 1 m/s 751 mmHg 45%
16:00 0°C° 0 mm 1 m/s 751 mmHg 46%
17:00 0°C° 0 mm 1 m/s 750 mmHg 46%
18:00 0°C° 0 mm 1 m/s 751 mmHg 50%
19:00 -1°C° 0 mm 1 m/s 751 mmHg 54%
20:00 -1°C° 0 mm 1 m/s 751 mmHg 57%
21:00 -1°C° 0 mm 1 m/s 751 mmHg 58%
22:00 -1°C° 0 mm 1 m/s 751 mmHg 59%
23:00 -1°C° 0 mm 1 m/s 751 mmHg 60%

10 Martie, Miercuri

Timp Temperatura Precipitaţii Vânt Presiune Umiditate
00:00 -2°C° 0 mm 1 m/s 751 mmHg 61%
01:00 -2°C° 0 mm 1 m/s 751 mmHg 62%
02:00 -2°C° 0 mm 1 m/s 751 mmHg 63%
03:00 -2°C° 0 mm 1 m/s 750 mmHg 64%
04:00 -3°C° 0 mm 0 m/s 750 mmHg 65%
05:00 -3°C° 0 mm 0 m/s 750 mmHg 66%
06:00 -3°C° 0 mm 0 m/s 750 mmHg 65%
07:00 -3°C° 0 mm 0 m/s 750 mmHg 64%
08:00 -3°C° 0 mm 0 m/s 750 mmHg 64%
09:00 -2°C° 0 mm 0 m/s 751 mmHg 58%
10:00 -1°C° 0 mm 0 m/s 751 mmHg 53%
11:00 0°C° 0 mm 0 m/s 751 mmHg 48%
12:00 0°C° 0 mm 0 m/s 751 mmHg 45%
13:00 +2°C° 0 mm 1 m/s 751 mmHg 43%
14:00 +2°C° 0 mm 1 m/s 751 mmHg 41%
15:00 +2°C° 0 mm 1 m/s 751 mmHg 42%
16:00 +2°C° 0 mm 1 m/s 751 mmHg 44%
17:00 +2°C° 0 mm 1 m/s 751 mmHg 45%
18:00 +1°C° 0 mm 1 m/s 751 mmHg 48%
19:00 0°C° 0 mm 1 m/s 751 mmHg 52%
20:00 -1°C° 0 mm 1 m/s 751 mmHg 55%
21:00 -3°C° 0 mm 2 m/s 751 mmHg 57%
22:00 -3°C° 0 mm 2 m/s 752 mmHg 58%
23:00 -3°C° 0 mm 2 m/s 752 mmHg 59%

11 Martie, Joi

Timp Temperatura Precipitaţii Vânt Presiune Umiditate
00:00 -3°C° 0 mm 2 m/s 752 mmHg 60%
01:00 -3°C° 0 mm 2 m/s 751 mmHg 61%
02:00 -3°C° 0 mm 2 m/s 751 mmHg 61%
03:00 -3°C° 0 mm 2 m/s 751 mmHg 62%
04:00 -5°C° 0 mm 3 m/s 750 mmHg 63%
05:00 -5°C° 0 mm 3 m/s 750 mmHg 64%
06:00 -4°C° 0 mm 3 m/s 750 mmHg 62%
07:00 -4°C° 0 mm 3 m/s 750 mmHg 61%
08:00 -4°C° 0 mm 4 m/s 750 mmHg 59%
09:00 -4°C° 0 mm 5 m/s 749 mmHg 55%
10:00 -2°C° 0 mm 5 m/s 749 mmHg 51%
11:00 -1°C° 0 mm 6 m/s 749 mmHg 46%
12:00 -1°C° 0 mm 7 m/s 748 mmHg 45%
13:00 -1°C° 0 mm 7 m/s 747 mmHg 43%
14:00 0°C° 0 mm 7 m/s 747 mmHg 41%
15:00 0°C° 0 mm 7 m/s 746 mmHg 43%
16:00 0°C° 0 mm 7 m/s 745 mmHg 44%
17:00 0°C° 0 mm 7 m/s 744 mmHg 46%
18:00 -1°C° 0.1 mm 7 m/s 743 mmHg 56%
19:00 -2°C° 0.1 mm 7 m/s 743 mmHg 66%
20:00 -2°C° 0.1 mm 8 m/s 742 mmHg 76%
21:00 -2°C° 0.6 mm 8 m/s 741 mmHg 82%
22:00 -2°C° 0.6 mm 8 m/s 740 mmHg 89%
23:00 -2°C° 0.6 mm 8 m/s 740 mmHg 96%

12 Martie, Vineri

Timp Temperatura Precipitaţii Vânt Presiune Umiditate
00:00 -1°C° 1.2 mm 8 m/s 739 mmHg 96%
01:00 -1°C° 1.2 mm 7 m/s 739 mmHg 95%
02:00 0°C° 1.2 mm 7 m/s 738 mmHg 94%
03:00 +1°C° 0.2 mm 6 m/s 738 mmHg 94%
04:00 +1°C° 0.2 mm 5 m/s 738 mmHg 94%
05:00 +1°C° 0.2 mm 5 m/s 738 mmHg 93%
06:00 +1°C° 0.1 mm 5 m/s 739 mmHg 93%
07:00 +1°C° 0.1 mm 5 m/s 739 mmHg 93%
08:00 +1°C° 0.1 mm 6 m/s 739 mmHg 93%
09:00 +2°C° 0 mm 6 m/s 740 mmHg 90%
10:00 +3°C° 0 mm 7 m/s 740 mmHg 87%
11:00 +3°C° 0 mm 7 m/s 740 mmHg 83%
12:00 +4°C° 0.3 mm 7 m/s 740 mmHg 79%
13:00 +4°C° 0.3 mm 8 m/s 740 mmHg 74%
14:00 +5°C° 0.3 mm 8 m/s 740 mmHg 69%
15:00 +5°C° 0.1 mm 7 m/s 741 mmHg 70%
16:00 +4°C° 0.1 mm 6 m/s 741 mmHg 70%
17:00 +5°C° 0.1 mm 5 m/s 741 mmHg 71%
18:00 +4°C° 0 mm 4 m/s 741 mmHg 74%
19:00 +3°C° 0 mm 4 m/s 742 mmHg 77%
20:00 +1°C° 0 mm 4 m/s 742 mmHg 81%
21:00 0°C° 0 mm 4 m/s 742 mmHg 82%
22:00 0°C° 0 mm 4 m/s 742 mmHg 83%
23:00 0°C° 0 mm 4 m/s 742 mmHg 84%
Arată mai mult

Formular de consimțământ

Meteoprog și furnizorii noștri de servicii pot stoca și accesa date personale, precum cookies, identificatori de dispozitiv sau alte tehnologii similare pe dispozitivul dumneavoastră și procesa astfel de date pentru a personaliza conținutul și reclamele, dar și pentru a oferi caracteristici de social media și pentru a analiza traficul.

  • Stocarea și/sau accesarea informațiilor pe dispozitivul dumneavoastră

    Cookies, identificatori de dispozitiv sau alte informații pot fi stocate sau accesate pe dispozitiv în scopurile indicate mai sus.

  • Reclame și conținut personalizat, evaluarea reclamelor și a conținutului, informații despre audiențe și dezvoltarea produselor

    Reclamele și conținutul pot fi personalizate pe baza unui profil. Pot fi adăugate date suplimentare pentru a personaliza mai bine reclamele și conținutul. Performanța reclamelor și conținutului poate fi măsurată. Pot fi obținute informații despre utilizatorii care au văzut reclamele și conținutul. Aceste date pot fi utilizate pentru a dezvolta sau îmbunătăți experiența utilizatorilor, sistemele și software-ul.

Dând clic pe ‘Sunt de acord’, permiteți utilizarea cookie-urilor menționate, a identificatorilor de dispozitiv, balizelor web sau altor tehnologii similare. Setările pot fi modificate din browser-ul dispozitivului dumneavoastră.

În anumite scopuri, interesele legitime pot prima asupra consimțământului. Puteți citi mai multe informații în acest sens în Politica privind Confidențialitatea Datelor și Cookie.